CAPE
17 0 0 0 0 0 0 0 0 0 0 0 0 0 0 0 0 0 0 0 0 0 0 0 0 0 0 0 0 0 0 0 0 0 2 2 1 0 0 0 0 0 0 0
0 0 0 3 6 0 0 0 0 0 0 0 0 0 0 0 0 0 0 0 0 0 0 0 0 0 0 0 0 0 0 0 0 0 0 0 0 0 0 0 0 0 0 0
0 0 0 0 0 0 0 0 0 0 0 0 0 0 0 0 0 0 0 0 0 0 0 0 0 0 0 0 0 0 0 0 0 0 0 0 0 0 0 0 0 0 0 0
0 0 0 0 0 0 0 0 0 0 0 0 0 0 0 0 0 0 0 0 0 0 0 0 0 0 0 0 0 0 0 0 0 0 0 0 0 0 0 0 0 0 0 0
0 0 0 0 0 0 0 0 0 0 0 0 0 0 0 0 0 0 0 0 0 0 0 0 0 0 0 0 0 0 0 0 0 0 0 0 0 0 0 0 0 0 0 0
0 0 0 0 0 0 0 0 1 0 0 0 0 0 0 0 0 0 0 0 0 0 0 0 0 0 0 0 0 0 0 0 0 0 0 0 0 0 0 0 0 0 0 0
0 0 0 0 0 0 0 0 0 0 0 0 0 0 0 0 0 0 0 0 0 0 0 0 0 0 0 0 0 0 0 0 0 0 0 0 0 0 0 0 0 0 0 0
0 0 0 0 0 0 0 0 0 0 0 0 0 0 0 0 0 0 0 0 0 0 0 0 0 0 0 0 0 0 0 0 0 0 0 0 0 0 0 0 0 0 0 0
1 0 0 0 0 0 0 0 0 0 0 0 0 0 0 0 0 0 0 0 0 0 0 0 0 0 0 0 0 0 0 0 0 0 0 0 0 0 0 0 0 0 0 0
0 0 0 0 0 0 0 0 0 0 0 0 0 0 0 0 0 0 0 0 0 0 0 0 0 0 0 0 0 0 0 0 0 0 0 0 0 0 0 0 0 0 0 0
0 0 0 0 0 0 0 0 0 0 0 0 0 0 0 0 0 0 0 0 0 0 0 0 0 0 0 0 0 0 0 0 0 0 0 0 0 0 0 0 0 0 0 0
0 0 0 0 0 0 0 0 1 0 0 0 0 0 0 0 0 0 0 0 0 0 0 0 0 0 0 0 0 0 0 0 0 0 0 0 0 0 0 0 0 0 0 0
0 0 0 0 0 0 0 0 0 0 0 0 0 0 0 0 0 0 0 0 0 0 0 0 0 0 0 0 0 0 0 0 0 0 0 0 0 0 0 0 0 0 0 0
1 0 0 0 0 0 0 0 0 0 0 0 0 0 0 0 0 0 0 0 0 0 0 0 0 0 0 0 0 0 0 0 0 0 0 0 0 0 0 0 0 0 0 0
0 0 0 0 0 0 0 0 0 0 1 0 0 0 0 0 0 0 0 0 0 0 0 0 0 0 0 0 0 0 0 0 0 0 0 0 0 0 0 0 0 0 0 0
0 0 0 0 0 0 0 0 0 0 0 0 0 0 0 0 0 0 0 0 0 0 0 0 0 0 0 0 0 0 0 0 0 0 0 0 0 0 0 0 0 0 0 0
0 0 0 0 0 0 0 0 0 0 0 0 0 0 0 0 0 0 0 0 0 0 0 0 0 0 0 0 0 0 0 0 0 0 0 0 0 0 0 0 0 0 0 0
0 0 0 0 0 0 0 0 0 0 0 0 0 0 0 0 0 0 0 0 0 0 0 0 0 0 0 0 0 0 0 0 0 0 0 0 0 0 0 0 0 0 0 0
0 4 0 0 0 0 0 0 0 0 0 0 0 0 0 0 0 0 0 0 0 0 0 0 0 0 0 0 0 0 0 0 0 0 0 0 0 0 0 0 0 0 0 0
0 3 5 0 0 0 0 0 0 0 0 0 0 0 0 0 0 0 0 0 0 0 0 0 0 0 0 0 0 0 0 0 0 0 0 0 0 0 0 0 0 0 0 0
0 1 0 0 0 0 0 0 0 0 0 0 0 0 0 0 0 0 0 0 0 0 0 0 0 0 0 0 0 0 0 0 0 0 0 0 0 0 0 0 0 0 0 0
0 0 0 1 0 0 0 0 0 0 0 0 0 0 0 0 0 0 0 0 0 0 0 0 0 0 0 0 0 0 0 0 0 0 0 0 0 0 0 0 0 0 0 0
0 0 0 0 0 0 0 0 0 0 0 0 0 0 0 0 0 0 0 0 0 0 0 0 0 0 0 0 0 0 0 0 0 0 0 0 0 0 0 0 0 0 0 0
0 0 0 0 0 0 0 0 0 0 0 0 0 0 0 0 0 0 0 0 0 0 0 0 0 0 0 0 0 0 0 0 0 0 0 0 0 0 0 0 0 0 0 0
0 0 0 0 0 0 0 0 0 0 0 0 0 0 0 0 0 0 0 0 0 0 0 0 0 0 0 0 0 0 0 0 0 0 0 0 0 0 0 0 0 0 0 0
0 0 0 0 0 0 0 0 0 0 0 0 0 0 0 0 0 0 0 0 0 0 0 0 0 0 0 0 0 0 0 0 0 0 0 0 0 0 0 0 0 0 0 0
CIN
-4 0 0 0 0 0 0 0 0 0 0 0 0 0 0 0 0 0 0 0 0 0 0 0 0 0 0 0 0 0 0 0 0 0 0 0 0 0 0 0 0 0 0 0
0 0 0 0 -22 0 0 0 0 0 0 0 0 0 0 0 0 0 0 0 0 0 0 0 0 0 0 0 0 0 0 0 0 0 0 0 0 0 0 0 0 0 0 0
0 0 0 0 0 0 0 0 0 0 0 0 0 0 0 0 0 0 0 0 0 0 0 0 0 0 0 0 0 0 0 0 0 0 0 0 0 0 0 0 0 0 0 0
0 0 0 0 0 0 0 0 0 0 0 0 0 0 0 0 0 0 0 0 0 0 0 0 0 0 0 0 0 0 0 0 0 0 0 0 0 0 0 0 0 0 0 0
0 0 0 0 0 0 0 0 0 0 0 0 0 0 0 0 0 0 0 0 0 0 0 0 0 0 0 0 0 0 0 0 0 0 0 0 0 0 0 0 0 0 0 0
0 0 0 0 0 0 0 0 -7 0 0 0 0 0 0 0 0 0 0 0 0 0 0 0 0 0 0 0 0 0 0 0 0 0 0 0 0 0 0 0 0 0 0 0
0 0 0 0 0 0 0 0 0 0 0 0 0 0 0 0 0 0 0 0 0 0 0 0 0 0 0 0 0 0 0 0 0 0 0 0 0 0 0 0 0 0 0 0
0 0 0 0 0 0 0 0 0 0 0 0 0 0 0 0 0 0 0 0 0 0 0 0 0 0 0 0 0 0 0 0 0 0 0 0 0 0 0 0 0 0 0 0
0 0 0 0 0 0 0 0 0 0 0 0 0 0 0 0 0 0 0 0 0 0 0 0 0 0 0 0 0 0 0 0 0 0 0 0 0 0 0 0 0 0 0 0
0 0 0 0 0 0 0 0 0 0 0 0 0 0 0 0 0 0 0 0 0 0 0 0 0 0 0 0 0 0 0 0 0 0 0 0 0 0 0 0 0 0 0 0
0 0 0 0 0 0 0 0 0 0 0 0 0 0 0 0 0 0 0 0 0 0 0 0 0 0 0 0 0 0 0 0 0 0 0 0 0 0 0 0 0 0 0 0
0 0 0 0 0 0 0 -1 -7 0 0 0 0 0 0 0 0 0 0 0 0 0 0 0 0 0 0 0 0 0 0 0 0 0 0 0 0 0 0 0 0 0 0 0
0 0 0 -1 0 0 0 0 0 0 0 0 0 0 0 0 0 0 0 0 0 0 0 0 0 0 0 0 0 0 0 0 0 0 0 0 0 0 0 0 0 0 0 0
0 0 0 0 0 0 0 0 0 0 0 0 0 0 0 0 0 0 0 0 0 0 0 0 0 0 0 0 0 0 0 0 0 0 0 0 0 0 0 0 0 0 0 0
0 0 0 0 0 0 0 0 0 0 0 0 0 0 0 0 0 0 0 0 0 0 0 0 0 0 0 0 0 0 0 0 0 0 0 0 0 0 0 0 0 0 0 0
0 0 0 0 0 0 0 0 0 0 0 0 0 0 0 0 0 0 0 0 0 0 0 0 0 0 0 0 0 0 0 0 0 0 0 0 0 0 0 0 0 0 0 0
0 0 0 0 0 0 0 0 0 0 0 0 0 0 0 0 0 0 0 0 0 0 0 0 0 0 0 0 0 0 0 0 0 0 0 0 0 0 0 0 0 0 0 0
0 0 0 0 0 0 0 0 0 0 0 0 0 0 0 0 0 0 0 0 0 0 0 0 0 0 0 0 0 0 0 0 0 0 0 0 0 0 0 0 0 0 0 0
0 0 -1 0 0 0 0 0 0 0 0 0 0 0 0 0 0 0 0 0 0 0 0 0 0 0 0 0 0 0 0 0 0 0 0 0 0 0 0 0 0 0 0 0
0 -1 -1 0 0 0 0 0 0 0 0 0 0 0 0 0 0 0 0 0 0 0 0 0 0 0 0 0 0 0 0 0 0 0 0 0 0 0 0 0 0 0 0 0
0 0 0 0 -3 0 0 0 0 0 0 0 0 0 0 0 0 0 0 0 0 0 0 0 0 0 0 0 0 0 0 0 0 0 0 0 0 0 0 0 0 0 0 0
0 0 0 0 -1 0 0 0 0 0 0 0 0 0 0 0 0 0 0 0 0 0 0 0 0 0 0 0 0 0 0 0 0 0 0 0 0 0 0 0 0 0 0 0
0 0 0 0 0 0 0 0 0 0 0 0 0 0 0 0 0 0 0 0 0 0 0 0 0 0 0 0 0 0 0 0 0 0 0 0 0 0 0 0 0 0 0 0
0 0 0 0 0 0 0 0 0 0 0 0 0 0 0 0 0 0 0 0 0 0 0 0 0 0 0 0 0 0 0 0 0 0 0 0 0 0 0 0 0 0 0 0
0 0 0 0 0 0 0 0 0 0 0 0 0 0 0 0 0 0 0 0 0 0 0 0 0 0 0 0 0 0 0 0 0 0 0 0 0 0 0 0 0 0 0 0
0 0 0 0 0 0 0 0 0 0 0 0 0 0 0 0 0 0 0 0 0 0 0 0 0 0 0 0 0 0 0 0 0 0 0 0 0 0 0 0 0 0 0 0
Wind_Speed
20 24 36 31 30 27 27 29 31 29 26 29 33 35 34 27 28 29 28 27 27 25 23 22 21 20 21 21 20 19 18 17 16 16 18 20 19 19 18 17 17 17 16 16
25 33 25 26 28 29 27 29 29 27 26 28 30 38 35 32 32 30 30 31 30 27 25 23 22 21 21 21 21 20 19 19 17 17 18 19 19 19 19 19 19 18 18 17
29 24 24 28 32 32 31 30 28 29 25 26 29 37 36 31 33 33 33 31 31 30 28 26 24 22 21 20 20 20 20 20 20 19 20 21 22 23 23 22 22 20 20 19
29 24 21 25 31 30 33 29 32 29 28 35 26 38 33 31 33 33 34 34 34 33 31 29 26 25 24 23 22 21 21 21 21 21 21 22 24 26 25 25 24 23 22 22
27 26 27 27 28 26 32 25 27 29 32 33 33 36 32 29 31 29 28 30 31 32 31 30 30 29 25 24 23 22 21 21 22 22 22 23 25 26 27 27 27 26 25 23
23 20 22 25 20 23 18 24 25 26 30 44 36 37 39 32 29 28 26 26 27 27 26 25 24 22 22 22 22 22 21 22 23 23 24 25 27 27 27 27 27 26 25 23
24 23 20 18 20 20 23 25 34 39 40 45 30 38 43 31 28 28 28 29 28 25 22 22 20 20 20 20 20 21 21 22 22 22 22 23 24 25 27 27 26 26 24 22
29 33 24 21 25 25 22 26 32 42 43 42 31 42 35 28 29 27 26 28 25 24 21 20 19 18 18 18 18 18 18 19 19 19 20 20 20 22 22 22 22 22 21 19
23 28 20 20 21 22 27 31 26 29 31 40 39 38 37 34 30 29 30 29 28 26 24 21 19 19 18 17 17 17 17 18 18 19 19 20 19 20 21 20 19 18 18 18
19 23 19 19 18 19 23 18 28 28 38 45 41 41 40 32 30 30 30 28 27 26 25 23 21 20 19 17 16 16 16 17 17 18 19 19 20 20 19 19 19 19 17 17
18 21 21 18 22 25 23 27 25 25 29 38 41 37 23 23 24 26 29 27 24 23 22 21 19 17 16 15 15 14 15 15 16 17 18 18 19 19 19 19 19 19 18 18
19 19 25 22 20 21 23 25 26 33 34 33 36 39 27 29 28 28 29 25 22 22 20 18 16 14 14 13 12 13 14 15 15 16 17 18 18 19 19 19 19 19 19 18
17 19 25 24 22 20 23 25 27 26 27 37 40 37 19 21 20 22 25 23 22 21 19 17 16 15 14 13 13 14 15 15 16 17 19 19 20 20 20 20 20 19 19 19
16 16 18 23 23 20 22 22 22 27 35 38 44 44 37 36 35 34 30 25 23 22 19 17 16 15 15 15 15 15 16 17 18 19 20 21 21 21 21 20 20 20 20 20
17 15 20 21 23 25 27 28 28 30 32 34 36 41 37 37 37 38 36 30 26 22 20 19 18 17 18 19 19 18 18 19 19 20 21 22 21 21 21 21 21 21 21 20
15 2 17 20 24 26 31 32 32 35 35 40 42 48 38 38 39 37 35 32 32 28 24 23 22 23 23 21 20 19 20 21 22 23 23 23 22 22 22 22 21 21 20 20
5 3 2 5 17 24 34 32 31 32 31 33 41 47 38 40 37 36 35 34 33 32 29 26 27 26 25 21 18 17 19 20 21 22 22 22 22 22 21 21 20 20 20 20
8 7 4 7 15 22 26 28 27 30 33 32 37 43 41 40 39 38 35 36 36 34 33 30 26 25 22 22 18 17 18 20 20 21 21 21 21 21 20 20 20 19 19 19
6 7 9 9 11 17 22 32 31 34 43 33 40 43 39 34 35 37 32 34 37 38 36 34 30 27 23 21 20 21 21 20 20 19 19 20 21 21 21 21 20 20 19 19
10 8 8 11 12 16 11 23 25 26 41 34 30 30 30 31 39 38 31 32 35 35 36 35 33 27 23 22 20 18 19 18 18 18 19 20 21 21 21 21 20 20 20 20
15 14 10 11 11 11 10 14 19 21 33 29 30 34 35 37 35 40 41 41 35 33 34 29 25 24 22 18 16 17 16 16 16 17 18 20 21 21 21 20 20 20 20 19
17 16 18 16 17 17 16 14 9 13 25 24 32 33 35 35 35 35 37 37 32 29 28 26 21 20 19 15 15 15 15 16 16 17 18 19 19 20 21 21 21 20 20 21
22 18 23 16 18 16 12 14 13 21 22 24 24 30 33 36 37 37 36 33 32 28 23 23 17 13 12 14 14 15 15 15 16 17 18 19 21 23 23 23 22 22 22 23
21 20 23 24 20 17 19 16 15 18 13 20 28 38 33 34 33 34 33 30 28 27 22 18 17 12 12 14 13 14 16 16 18 19 20 21 22 23 22 23 22 23 23 25
21 17 22 23 20 26 19 12 13 11 17 27 25 24 28 31 32 29 28 25 24 22 21 19 17 18 16 15 17 20 20 19 22 23 22 22 22 22 22 23 24 24 24 23
18 20 22 22 24 19 14 16 14 8 11 15 21 25 23 16 22 24 27 26 24 28 23 25 24 21 19 17 19 20 22 22 23 25 23 23 22 23 22 22 23 23 23 21
Wind_Direction
247 247 235 239 243 249 251 250 251 255 259 257 256 256 256 262 260 259 259 261 262 265 269 272 274 276 278 278 280 281 283 285 286 287 290 292 294 296 298 299 300 300 301 303
247 245 249 247 249 249 252 252 253 260 260 258 261 257 258 260 260 262 261 262 264 268 271 273 275 277 279 281 281 281 283 286 286 289 292 296 299 300 300 303 301 300 300 301
243 256 250 244 246 247 249 253 257 258 263 263 264 261 259 262 262 263 264 266 267 268 271 273 275 276 280 282 285 286 287 287 288 290 292 295 298 300 302 302 303 302 302 302
250 259 256 247 246 247 250 259 258 260 261 256 265 258 261 262 262 263 264 266 267 269 271 274 276 276 278 281 286 288 291 293 295 295 293 293 294 296 299 302 303 304 304 304
251 252 249 251 254 250 251 267 260 258 257 261 261 262 263 265 265 267 269 270 272 273 273 274 274 274 278 281 284 289 292 294 297 299 299 298 297 299 300 301 301 302 304 304
262 272 264 264 267 258 255 262 266 265 262 255 259 261 260 266 271 272 276 279 281 280 279 277 280 281 280 283 286 289 292 295 298 299 300 299 299 300 301 302 302 303 305 307
259 262 270 267 258 264 259 256 256 254 253 254 267 261 263 277 278 278 279 280 283 284 284 282 283 284 285 286 288 292 294 297 301 304 305 306 306 306 303 304 305 305 306 308
253 251 260 265 262 262 257 253 257 255 255 258 268 261 269 281 283 283 285 286 283 283 285 284 285 286 288 291 295 298 301 304 308 311 312 316 319 318 319 317 314 313 313 315
264 259 277 273 272 265 258 257 264 269 269 264 265 270 277 283 285 289 287 283 279 279 279 283 285 286 288 291 295 298 301 305 310 313 316 318 323 325 322 327 326 323 322 321
278 268 278 276 276 277 265 260 264 263 262 261 265 268 269 279 286 291 290 288 283 278 278 279 280 284 289 293 297 302 306 308 312 316 318 319 321 322 327 329 327 326 327 327
281 277 277 277 270 262 265 261 270 267 268 267 267 269 280 288 297 298 299 295 289 284 281 280 283 286 289 293 297 303 308 312 316 318 320 322 323 325 327 327 326 326 326 326
284 287 272 276 288 281 273 271 267 264 266 268 271 270 286 291 297 300 304 301 296 289 287 285 284 284 288 292 297 303 309 313 318 321 323 325 325 326 326 327 327 327 327 326
300 292 275 277 284 287 275 272 270 274 277 266 267 270 296 307 307 310 313 308 300 294 289 284 280 281 284 289 295 301 306 311 315 317 319 319 320 320 322 323 325 326 326 326
305 300 296 277 283 289 279 278 278 270 269 271 267 272 279 285 291 295 301 306 302 295 288 284 281 281 284 289 295 300 304 309 312 313 314 315 317 319 321 322 323 323 324 323
305 306 294 293 291 286 282 279 278 274 274 273 279 277 282 288 289 289 291 292 297 294 285 280 279 280 283 286 290 295 302 308 312 314 316 316 317 318 319 320 320 321 320 321
325 147 307 301 294 289 282 279 279 278 279 277 278 275 287 288 291 287 289 289 284 284 280 278 278 280 283 287 290 294 300 305 308 309 311 313 314 315 315 316 318 319 320 321
8 17 352 275 309 301 282 286 283 286 287 286 279 276 291 292 294 291 290 288 285 283 282 277 276 278 283 294 296 294 302 308 310 311 312 313 315 316 316 317 318 319 320 322
328 334 328 301 314 293 294 296 294 291 288 288 286 282 289 291 292 291 295 290 287 285 283 282 280 278 278 290 291 294 301 305 307 311 313 315 317 318 320 320 320 321 322 322
270 303 323 316 297 307 301 295 293 289 284 288 286 287 293 297 297 293 300 296 289 287 288 287 285 283 280 278 284 288 294 298 301 306 311 315 318 319 320 319 320 321 321 321
304 281 290 318 314 315 321 318 306 300 288 293 296 297 299 302 292 293 307 309 303 299 290 288 283 284 282 277 278 281 288 293 297 306 312 317 319 320 320 321 321 322 322 322
317 309 267 284 298 321 305 318 320 307 305 296 295 297 297 296 298 298 299 300 304 300 298 299 292 282 281 280 277 279 285 290 299 306 312 317 321 323 324 325 324 323 322 322
304 305 303 302 308 309 328 333 312 320 319 315 304 299 298 299 302 307 307 302 304 307 304 301 296 289 282 279 279 281 285 293 300 307 314 321 327 327 325 323 323 322 321 319
298 294 303 296 305 321 326 320 312 319 316 316 315 314 309 303 299 301 303 304 298 299 305 304 303 300 293 285 283 283 289 295 302 310 317 321 322 321 320 319 319 318 318 316
306 305 299 299 297 287 303 304 303 306 285 310 309 306 310 307 308 301 300 304 305 296 298 304 301 300 295 289 293 295 295 300 304 309 313 316 317 319 320 319 319 317 314 314
309 311 303 299 295 308 304 281 291 284 309 310 312 319 314 310 306 306 302 306 306 308 304 299 299 296 299 295 295 294 297 301 302 305 310 313 315 316 318 319 318 317 317 318
301 297 298 298 306 304 289 314 314 288 303 310 315 319 322 321 316 308 303 301 299 292 301 296 293 297 299 300 298 297 298 299 302 304 307 308 310 312 317 320 321 327 325 325